period_start,C,m1,H,J0,J1,J2,J3,J4,J5,JA,JB,JC,JD,JJ,JK,JN,#
2015-05-28 00:03:56,0.09,0.74,0.00,24.54,27.85,30.45,4.73,26.20,1012.22,2034.00,3160.87,3090.50,3360.68,350.00,344.43,28.71,0000 0000 0000 0000 000000
2015-05-28 00:08:58,0.06,0.74,0.00,24.56,27.85,30.45,4.70,26.31,1012.23,2034.00,3159.96,3089.75,3359.90,349.54,343.84,28.74,0000 0000 0000 0000 000000
2015-05-28 00:13:59,0.08,0.74,0.00,24.57,27.87,30.46,4.72,26.22,1012.22,2034.00,3159.05,3089.02,3359.07,349.81,344.08,28.77,0000 0000 0000 0000 000000
2015-05-28 00:19:01,0.08,0.74,0.00,24.58,27.87,30.45,4.73,26.21,1012.23,2034.00,3158.21,3088.43,3358.41,349.62,343.98,28.80,0000 0000 0000 0000 000000
2015-05-28 00:24:02,0.03,0.75,0.00,24.60,27.87,30.46,4.71,26.25,1012.22,2034.00,3157.54,3088.00,3357.96,349.84,344.09,28.83,0000 0000 0000 0000 000000
2015-05-28 00:29:03,0.08,0.75,0.00,24.62,27.88,30.47,4.74,26.32,1012.23,2034.00,3156.76,3087.33,3357.19,349.68,343.69,28.85,0000 0000 0000 0000 000000
2015-05-28 00:34:04,0.02,0.75,0.00,24.62,27.90,30.48,4.78,26.24,1012.24,2034.00,3156.03,3086.98,3356.91,349.50,344.01,28.88,0000 0000 0000 0000 000000
2015-05-28 00:39:06,0.05,0.75,0.00,24.64,27.90,30.50,4.72,26.34,1012.26,2033.99,3155.73,3086.75,3356.16,350.54,344.83,28.91,0000 0000 0000 0000 000000
2015-05-28 00:44:07,0.05,0.75,0.00,24.65,27.90,30.51,4.70,26.26,1012.36,2033.99,3155.02,3086.07,3355.99,349.79,344.10,28.94,0000 0000 0000 0000 000000
2015-05-28 00:49:08,0.08,0.75,0.00,24.67,27.91,30.53,4.70,26.23,1012.68,2033.99,3154.31,3085.66,3355.41,349.88,344.29,28.97,0000 0000 0000 0000 000000
2015-05-28 00:54:09,0.09,0.76,0.00,24.69,27.92,30.53,4.64,26.23,1012.71,2033.99,3152.97,3084.82,3354.42,349.55,343.81,29.00,0000 0000 0000 0000 000000
2015-05-28 00:59:11,0.15,0.76,0.00,24.70,27.92,30.53,4.70,26.43,1012.71,2033.98,3151.33,3083.64,3353.29,349.47,343.85,29.03,0000 0000 0000 0000 000000
2015-05-28 01:04:12,0.08,0.76,0.00,24.72,27.93,30.54,4.69,26.23,1012.71,2033.97,3149.97,3082.80,3352.17,350.08,344.41,29.06,0000 0000 0000 0000 000000
2015-05-28 01:09:13,0.09,0.77,0.00,24.72,27.95,30.55,4.66,26.28,1012.71,2033.97,3148.85,3081.98,3351.45,349.38,343.76,29.09,0000 0000 0000 0000 000000
2015-05-28 01:14:15,0.09,0.77,0.00,24.73,27.95,30.55,4.67,26.23,1012.71,2033.96,3147.78,3081.13,3350.65,349.83,343.93,29.12,0000 0000 0000 0000 000000
2015-05-28 01:19:16,0.07,0.77,0.00,24.75,27.96,30.56,4.75,26.23,1012.71,2033.93,3146.75,3080.51,3349.87,350.20,344.42,29.15,0000 0000 0000 0000 000000
2015-05-28 01:24:18,0.04,0.77,0.00,24.77,27.97,30.57,4.69,26.23,1012.71,2033.90,3145.94,3079.99,3349.06,349.60,343.99,29.18,0000 0000 0000 0000 000000
2015-05-28 01:29:19,0.09,0.77,0.00,24.77,27.97,30.58,4.72,26.33,1012.72,2033.92,3145.10,3079.34,3348.58,349.73,344.09,29.21,0000 0000 0000 0000 000000
2015-05-28 01:34:20,0.02,0.78,0.00,24.77,27.98,30.59,4.74,26.19,1012.72,2033.80,3144.34,3078.92,3347.97,350.19,344.35,29.24,0000 0000 0000 0000 000000
2015-05-28 01:39:22,0.03,0.78,0.00,24.79,28.00,30.60,4.71,26.29,1012.74,2033.43,3143.40,3078.09,3347.14,350.07,344.38,29.27,0000 0000 0000 0000 000000
2015-05-28 01:44:23,0.05,0.78,0.00,24.80,28.00,30.60,4.72,26.23,1012.80,2033.26,3142.62,3077.64,3346.60,350.29,344.48,29.29,0000 0000 0000 0000 000000
2015-05-28 01:49:24,0.01,0.78,0.00,24.81,28.01,30.61,4.68,26.28,1012.78,2033.17,3142.01,3077.03,3346.01,349.79,344.08,29.32,0000 0000 0000 0000 000000
2015-05-28 01:54:25,0.00,0.78,0.00,24.82,28.02,30.62,4.75,26.23,1012.82,2033.14,3141.72,3076.99,3345.95,350.58,344.65,29.35,0000 0000 0000 0000 000000
2015-05-28 01:59:26,0.08,0.78,0.00,24.82,28.02,30.62,4.67,26.33,1012.85,2033.07,3141.00,3076.33,3345.18,349.78,344.06,29.38,0000 0000 0000 0000 000000
2015-05-28 02:04:27,0.02,0.78,0.00,24.84,28.04,30.64,4.69,26.18,1012.88,2033.04,3140.33,3076.00,3344.93,350.00,344.09,29.41,0000 0000 0000 0000 000000
2015-05-28 02:09:29,0.07,0.78,0.00,24.85,28.05,30.65,4.71,26.27,1012.85,2033.06,3139.74,3075.52,3344.13,349.86,344.03,29.44,0000 0000 0000 0000 000000
2015-05-28 02:14:30,0.04,0.79,0.00,24.86,28.05,30.65,4.64,26.21,1013.12,2033.02,3139.02,3075.00,3343.57,349.75,344.05,29.47,0000 0000 0000 0000 000000
2015-05-28 02:19:32,0.07,0.79,0.00,24.87,28.07,30.67,4.68,26.22,1013.17,2033.02,3138.49,3074.43,3343.01,349.36,343.83,29.50,0000 0000 0000 0000 000000
2015-05-28 02:24:33,0.03,0.79,0.00,24.87,28.07,30.67,4.68,26.31,1013.19,2033.01,3137.94,3073.98,3342.33,349.52,343.99,29.53,0000 0000 0000 0000 000000
2015-05-28 02:29:34,0.07,0.79,0.00,24.87,28.09,30.69,4.69,26.33,1013.19,2033.00,3137.12,3073.25,3341.97,349.72,343.99,29.56,0000 0000 0000 0000 000000
2015-05-28 02:34:36,0.04,0.79,0.00,24.88,28.10,30.69,4.72,26.33,1013.20,2033.00,3136.64,3073.00,3341.26,349.66,344.02,29.59,0000 0000 0000 0000 000000
2015-05-28 02:39:37,0.07,0.79,0.00,24.90,28.10,30.70,4.73,26.29,1013.20,2033.00,3135.82,3072.35,3340.78,350.15,344.47,29.62,0000 0000 0000 0000 000000
2015-05-28 02:44:38,0.07,0.80,0.00,24.91,28.12,30.70,4.65,26.28,1013.20,2033.00,3135.03,3071.69,3340.00,349.69,344.13,29.65,0000 0000 0000 0000 000000
2015-05-28 02:49:39,0.06,0.80,0.00,24.92,28.12,30.71,4.67,26.32,1013.20,2033.00,3134.56,3071.03,3339.28,349.62,343.88,29.68,0000 0000 0000 0000 000000
2015-05-28 02:54:40,0.01,0.80,0.00,24.92,28.14,30.73,4.71,26.34,1013.20,2033.00,3133.99,3070.91,3338.94,349.85,344.14,29.70,0000 0000 0000 0000 000000
2015-05-28 02:59:42,0.09,0.80,0.00,24.92,28.15,30.73,4.77,26.50,1013.20,2032.99,3133.18,3070.13,3338.13,350.38,344.77,29.73,0000 0000 0000 0000 000000
2015-05-28 03:04:43,0.04,0.80,0.00,24.93,28.15,30.74,4.67,26.32,1013.20,2032.99,3132.59,3069.92,3337.76,349.94,344.20,29.76,0000 0000 0000 0000 000000
2015-05-28 03:09:44,0.06,0.81,0.00,24.96,28.16,30.75,4.67,26.28,1013.20,2032.98,3131.98,3069.13,3337.04,349.93,344.11,29.79,0000 0000 0000 0000 000000
2015-05-28 03:14:45,0.06,0.81,0.00,24.96,28.17,30.75,4.77,26.32,1013.21,2032.97,3131.18,3068.77,3336.48,350.04,344.47,29.82,0000 0000 0000 0000 000000
2015-05-28 03:19:47,0.07,0.81,0.00,24.97,28.17,30.75,4.77,26.35,1013.21,2032.97,3130.53,3068.03,3335.76,349.81,344.18,29.85,0000 0000 0000 0000 000000
2015-05-28 03:24:48,0.06,0.81,0.00,24.97,28.18,30.76,4.72,26.29,1013.23,2032.92,3129.87,3067.36,3335.01,349.97,344.31,29.88,0000 0000 0000 0000 000000
2015-05-28 03:29:49,0.06,0.81,0.00,24.98,28.20,30.78,4.61,26.33,1013.22,2032.92,3129.07,3066.98,3334.20,349.20,343.22,29.91,0000 0000 0000 0000 000000
2015-05-28 03:34:51,0.01,0.81,0.00,24.99,28.20,30.79,4.75,26.34,1013.35,2032.82,3128.97,3066.67,3334.00,350.06,344.38,29.94,0000 0000 0000 0000 000000
2015-05-28 03:39:52,0.05,0.81,0.00,24.99,28.21,30.79,4.80,26.33,1013.48,2032.73,3128.17,3066.01,3333.26,350.37,344.72,29.97,0000 0000 0000 0000 000000
2015-05-28 03:44:53,-0.01,0.82,0.00,25.00,28.22,30.79,4.69,26.36,1013.66,2032.61,3127.99,3065.75,3333.00,350.17,344.46,30.00,0000 0000 0000 0000 000000
2015-05-28 03:49:54,0.01,0.81,0.00,25.02,28.22,30.80,4.74,26.31,1013.69,2032.39,3127.93,3065.30,3332.97,350.28,344.67,30.03,0000 0000 0000 0000 000000
2015-05-28 03:54:55,0.00,0.81,0.00,25.02,28.24,30.82,4.70,26.42,1013.69,2032.29,3127.42,3065.06,3332.84,349.98,344.35,30.06,0000 0000 0000 0000 000000
2015-05-28 03:59:57,-0.00,0.81,0.00,25.03,28.25,30.83,4.71,26.41,1013.69,2032.08,3127.01,3065.00,3332.18,349.89,344.29,30.09,0000 0000 0000 0000 000000
2015-05-28 04:04:58,-0.00,0.81,0.00,25.05,28.25,30.84,4.69,26.44,1013.69,2032.02,3127.00,3065.00,3332.01,349.26,343.72,30.11,0000 0000 0000 0000 000000
2015-05-28 04:09:59,0.00,0.81,0.00,25.07,28.27,30.85,4.81,26.38,1013.69,2032.04,3126.90,3064.95,3331.99,350.27,344.67,30.14,0000 0000 0000 0000 000000
2015-05-28 04:15:01,0.10,0.82,0.00,25.09,28.27,30.86,4.75,26.43,1013.69,2032.03,3125.89,3064.11,3331.28,349.77,344.10,30.17,0000 0000 0000 0000 000000
2015-05-28 04:20:02,0.05,0.82,0.00,25.10,28.28,30.87,4.76,26.40,1013.70,2032.02,3124.70,3063.88,3330.93,350.04,344.21,30.20,0000 0000 0000 0000 000000
2015-05-28 04:25:03,0.06,0.82,0.00,25.11,28.30,30.88,4.71,26.41,1013.71,2032.01,3124.00,3063.14,3330.19,349.81,344.13,30.23,0000 0000 0000 0000 000000
2015-05-28 04:30:04,0.02,0.82,0.00,25.12,28.30,30.88,4.72,26.34,1013.71,2032.00,3123.49,3063.00,3329.99,350.62,344.84,30.26,0000 0000 0000 0000 000000
2015-05-28 04:35:06,0.01,0.82,0.00,25.14,28.32,30.90,4.75,26.41,1013.73,2032.00,3123.03,3062.98,3329.95,350.10,344.34,30.29,0000 0000 0000 0000 000000
2015-05-28 04:40:07,0.01,0.82,0.00,25.15,28.32,30.91,4.76,26.27,1013.92,2032.00,3123.00,3062.85,3329.80,350.56,344.66,30.32,0000 0000 0000 0000 000000
2015-05-28 04:45:08,0.07,0.82,0.00,25.15,28.35,30.93,4.66,26.31,1013.87,2032.00,3122.58,3062.10,3329.07,349.33,343.59,30.35,0000 0000 0000 0000 000000
2015-05-28 04:50:09,0.01,0.83,0.00,25.17,28.35,30.94,4.72,26.33,1013.76,2032.00,3122.04,3062.00,3329.00,349.80,343.91,30.38,0000 0000 0000 0000 000000
2015-05-28 04:55:11,0.00,0.83,0.00,25.19,28.37,30.94,4.71,26.43,1013.73,2031.99,3121.99,3061.99,3328.95,350.00,344.15,30.41,0000 0000 0000 0000 000000
2015-05-28 05:00:13,0.08,0.83,0.00,25.20,28.37,30.96,4.74,26.57,1013.72,2031.98,3121.41,3061.52,3328.26,349.80,343.95,30.44,0000 0000 0000 0000 000000
2015-05-28 05:05:13,0.01,0.83,0.00,25.21,28.39,30.97,4.76,26.40,1013.75,2031.98,3120.98,3061.01,3327.93,350.16,344.04,30.47,0000 0000 0000 0000 000000
2015-05-28 05:10:15,0.03,0.83,0.00,25.22,28.40,30.97,4.72,26.34,1013.72,2031.96,3120.62,3060.95,3327.45,349.89,344.02,30.50,0000 0000 0000 0000 000000
2015-05-28 05:15:16,0.01,0.83,0.00,25.22,28.41,30.99,4.74,26.39,1013.82,2031.95,3120.09,3060.90,3327.07,350.08,344.22,30.52,0000 0000 0000 0000 000000
2015-05-28 05:20:18,0.01,0.83,0.00,25.24,28.42,31.00,4.63,26.32,1013.83,2031.88,3120.01,3060.45,3327.01,349.62,343.66,30.55,0000 0000 0000 0000 000000
2015-05-28 05:25:19,-0.03,0.83,0.00,25.25,28.43,31.03,4.67,26.40,1013.79,2031.68,3119.99,3060.03,3327.00,349.65,344.21,30.58,0000 0000 0000 0000 000000
2015-05-28 05:30:20,0.00,0.83,0.00,25.25,28.45,31.03,4.74,26.38,1014.05,2031.53,3119.87,3060.00,3326.98,350.09,344.32,30.61,0000 0000 0000 0000 000000
2015-05-28 05:35:21,-0.02,0.83,0.00,25.26,28.45,31.05,4.68,26.45,1014.16,2031.22,3119.21,3060.00,3326.76,349.79,343.91,30.64,0000 0000 0000 0000 000000
2015-05-28 05:40:23,-0.00,0.83,0.00,25.27,28.47,31.06,4.64,26.39,1014.17,2031.08,3119.02,3059.97,3326.21,349.70,344.05,30.67,0000 0000 0000 0000 000000
2015-05-28 05:45:24,0.01,0.83,0.00,25.27,28.47,31.06,4.70,26.39,1014.17,2031.06,3118.99,3059.63,3326.02,349.81,343.91,30.70,0000 0000 0000 0000 000000
2015-05-28 05:50:25,0.02,0.83,0.00,25.30,28.49,31.07,4.70,26.36,1014.18,2031.02,3118.95,3059.19,3326.00,349.66,344.15,30.73,0000 0000 0000 0000 000000
2015-05-28 05:55:26,0.02,0.83,0.00,25.30,28.50,31.08,4.67,26.42,1014.19,2031.01,3118.58,3059.03,3326.00,349.85,344.05,30.76,0000 0000 0000 0000 000000
2015-05-28 06:00:27,0.02,0.83,0.00,25.31,28.50,31.10,4.72,26.49,1014.18,2031.01,3118.06,3059.00,3325.92,350.05,344.36,30.79,0000 0000 0000 0000 000000
2015-05-28 06:05:28,0.01,0.83,0.00,25.31,28.52,31.10,4.67,26.30,1014.19,2031.02,3118.01,3059.00,3325.61,349.86,343.81,30.82,0000 0000 0000 0000 000000
2015-05-28 06:10:30,0.00,0.83,0.00,25.32,28.52,31.12,4.72,26.39,1014.19,2031.00,3118.00,3058.98,3325.14,349.81,343.96,30.85,0000 0000 0000 0000 000000
2015-05-28 06:15:31,0.04,0.83,0.00,25.32,28.54,31.13,4.76,26.32,1014.24,2031.00,3117.65,3058.71,3325.01,350.19,344.37,30.88,0000 0000 0000 0000 000000
2015-05-28 06:20:33,0.03,0.83,0.00,25.32,28.55,31.13,4.73,26.40,1014.27,2031.00,3117.05,3058.13,3324.99,349.71,343.94,30.91,0000 0000 0000 0000 000000
2015-05-28 06:25:34,0.04,0.83,0.00,25.32,28.55,31.14,4.69,26.32,1014.43,2030.99,3116.64,3058.00,3324.35,349.92,344.26,30.93,0000 0000 0000 0000 000000
2015-05-28 06:30:35,0.04,0.84,0.00,25.32,28.57,31.14,4.66,26.29,1014.62,2030.99,3116.01,3057.57,3324.00,349.43,343.72,30.96,0000 0000 0000 0000 000000
2015-05-28 06:35:37,0.02,0.84,0.00,25.32,28.57,31.16,4.75,26.32,1014.66,2030.97,3115.77,3057.07,3323.95,350.06,344.20,30.99,0000 0000 0000 0000 000000
2015-05-28 06:40:38,0.03,0.84,0.00,25.32,28.59,31.16,4.70,26.32,1014.66,2030.97,3115.07,3057.00,3323.37,349.93,344.37,31.02,0000 0000 0000 0000 000000
2015-05-28 06:45:40,0.02,0.84,0.00,25.31,28.60,31.17,4.74,26.32,1014.66,2030.97,3114.69,3056.90,3323.00,350.04,344.37,31.05,0000 0000 0000 0000 000000
2015-05-28 06:50:41,0.07,0.84,0.00,25.31,28.60,31.18,4.73,26.43,1014.66,2030.96,3114.04,3056.17,3322.71,349.84,344.17,31.08,0000 0000 0000 0000 000000
2015-05-28 06:55:42,-0.00,0.84,0.00,25.31,28.60,31.19,4.72,26.43,1014.66,2030.87,3113.84,3056.00,3322.09,349.89,344.22,31.11,0000 0000 0000 0000 000000
2015-05-28 07:00:43,0.02,0.84,0.00,25.30,28.62,31.20,4.69,26.38,1014.67,2030.67,3113.09,3055.96,3322.00,349.70,344.06,31.14,0000 0000 0000 0000 000000
2015-05-28 07:05:44,0.04,0.84,0.00,25.30,28.62,31.21,4.75,26.32,1014.69,2030.78,3112.98,3055.55,3321.88,350.24,344.21,31.17,0000 0000 0000 0000 000000
2015-05-28 07:10:45,0.04,0.84,0.00,25.30,28.62,31.21,4.71,26.35,1014.70,2030.75,3112.29,3055.08,3321.19,349.87,344.38,31.20,0000 0000 0000 0000 000000
2015-05-28 07:15:46,-0.01,0.84,0.00,25.30,28.63,31.21,4.69,26.35,1014.74,2030.65,3112.00,3054.99,3321.00,349.93,344.22,31.23,0000 0000 0000 0000 000000
2015-05-28 07:20:47,0.00,0.84,0.00,25.30,28.64,31.22,4.73,26.33,1014.83,2030.57,3111.98,3054.94,3320.98,350.01,344.35,31.26,0000 0000 0000 0000 000000
2015-05-28 07:25:49,0.01,0.84,0.00,25.30,28.65,31.23,4.64,26.32,1014.72,2030.32,3111.39,3054.46,3320.70,349.52,343.70,31.29,0000 0000 0000 0000 000000
2015-05-28 07:30:50,0.06,0.85,0.00,25.30,28.65,31.24,4.70,26.32,1014.93,2030.46,3111.02,3054.04,3320.12,349.57,344.09,31.32,0000 0000 0000 0000 000000
2015-05-28 07:35:51,-0.01,0.85,0.00,25.29,28.65,31.24,4.70,26.36,1015.09,2030.37,3110.80,3054.00,3320.00,349.57,344.14,31.34,0000 0000 0000 0000 000000
2015-05-28 07:40:52,0.01,0.85,0.00,25.28,28.65,31.24,4.69,26.27,1015.08,2030.40,3110.49,3053.99,3319.99,349.96,344.25,31.37,0000 0000 0000 0000 000000
2015-05-28 07:45:54,-0.00,0.85,0.00,25.27,28.66,31.25,4.66,26.24,1015.14,2030.26,3110.09,3053.95,3319.92,350.18,344.71,31.40,0000 0000 0000 0000 000000
2015-05-28 07:50:55,0.01,0.85,0.00,25.26,28.67,31.25,4.69,26.38,1015.15,2030.15,3110.00,3053.70,3319.60,349.90,344.57,31.43,0000 0000 0000 0000 000000
2015-05-28 07:55:56,0.02,0.85,0.00,25.24,28.67,31.25,4.77,26.34,1015.15,2030.09,3110.00,3053.32,3319.16,350.13,344.71,31.46,0000 0000 0000 0000 000000
2015-05-28 08:00:57,0.01,0.85,0.00,25.23,28.67,31.25,4.76,26.32,1015.16,2030.02,3109.76,3053.02,3319.00,350.08,344.69,31.49,0000 0000 0000 0000 000000
2015-05-28 08:05:59,0.03,0.85,0.00,25.22,28.67,31.25,4.70,26.32,1015.17,2030.09,3109.34,3053.00,3319.00,350.15,344.83,31.52,0000 0000 0000 0000 000000
2015-05-28 08:11:00,0.00,0.85,0.00,25.22,28.67,31.25,4.70,26.29,1015.28,2030.09,3109.20,3053.00,3319.00,349.92,344.72,31.55,0000 0000 0000 0000 000000
2015-05-28 08:16:01,0.01,0.85,0.00,25.20,28.67,31.26,4.76,26.24,1015.40,2030.14,3109.03,3053.00,3318.99,350.22,344.74,31.58,0000 0000 0000 0000 000000
2015-05-28 08:21:03,-0.01,0.85,0.00,25.19,28.67,31.26,4.77,26.27,1015.61,2030.10,3109.00,3052.99,3318.96,349.93,344.87,31.61,0000 0000 0000 0000 000000
2015-05-28 08:26:04,0.00,0.85,0.00,25.17,28.67,31.25,4.65,26.23,1015.63,2030.09,3108.99,3052.97,3318.83,349.74,344.42,31.64,0000 0000 0000 0000 000000
2015-05-28 08:31:05,0.04,0.85,0.00,25.16,28.67,31.25,4.75,26.25,1015.63,2030.05,3108.63,3052.81,3318.25,349.95,344.78,31.67,0000 0000 0000 0000 000000
2015-05-28 08:36:06,0.07,0.85,0.00,25.14,28.67,31.24,4.74,26.29,1015.64,2030.15,3107.98,3052.28,3318.06,350.16,344.91,31.70,0000 0000 0000 0000 000000
2015-05-28 08:41:07,0.08,0.85,0.00,25.12,28.67,31.25,4.69,26.27,1015.64,2030.16,3107.02,3051.60,3317.31,349.81,344.70,31.73,0000 0000 0000 0000 000000
2015-05-28 08:46:09,0.05,0.86,0.00,25.11,28.66,31.25,4.68,26.29,1015.64,2030.13,3106.09,3051.01,3316.62,349.43,344.31,31.75,0000 0000 0000 0000 000000
2015-05-28 08:51:10,0.02,0.86,0.00,25.10,28.65,31.24,4.68,26.27,1015.64,2030.21,3105.88,3050.97,3316.26,349.75,344.65,31.78,0000 0000 0000 0000 000000
2015-05-28 08:56:12,0.05,0.86,0.00,25.08,28.65,31.23,4.70,26.32,1015.64,2030.16,3105.19,3050.65,3316.03,349.36,344.31,31.81,0000 0000 0000 0000 000000
2015-05-28 09:01:13,0.03,0.86,0.00,25.06,28.65,31.23,4.74,26.32,1015.65,2030.17,3104.91,3050.02,3315.98,350.13,345.08,31.84,0000 0000 0000 0000 000000
2015-05-28 09:06:14,0.02,0.86,0.00,25.05,28.65,31.23,4.78,26.24,1015.65,2030.30,3104.51,3050.00,3315.94,349.62,344.88,31.87,0000 0000 0000 0000 000000
2015-05-28 09:11:15,0.02,0.86,0.00,25.02,28.64,31.23,4.71,26.35,1015.69,2030.33,3104.12,3050.00,3315.75,350.01,345.13,31.90,0000 0000 0000 0000 000000
2015-05-28 09:16:16,0.01,0.86,0.00,25.02,28.63,31.22,4.70,26.27,1015.86,2030.34,3104.00,3049.92,3315.14,350.04,345.15,31.93,0000 0000 0000 0000 000000
2015-05-28 09:21:18,0.11,0.86,0.00,25.00,28.62,31.21,4.74,26.30,1015.90,2030.51,3103.57,3049.39,3315.00,349.69,344.86,31.96,0000 0000 0000 0000 000000
2015-05-28 09:26:19,0.04,0.87,0.00,24.99,28.62,31.20,4.69,26.27,1015.74,2030.72,3103.08,3049.07,3315.00,349.86,344.95,31.99,0000 0000 0000 0000 000000
2015-05-28 09:31:20,-0.01,0.87,0.00,24.97,28.62,31.21,4.76,26.26,1015.78,2030.77,3103.01,3049.03,3314.97,350.06,345.03,32.02,0000 0000 0000 0000 000000
2015-05-28 09:36:21,0.07,0.87,0.00,24.95,28.60,31.20,4.68,26.25,1015.90,2030.80,3102.62,3048.81,3314.49,349.98,345.20,32.05,0000 0000 0000 0000 000000
2015-05-28 09:41:23,0.07,0.87,0.00,24.94,28.60,31.18,4.71,26.26,1016.01,2030.63,3101.09,3048.02,3313.12,350.00,345.50,32.08,0000 0000 0000 0000 000000
2015-05-28 09:46:24,0.06,0.87,0.00,24.92,28.60,31.19,4.72,26.26,1015.92,2030.83,3100.72,3047.84,3313.00,350.02,345.01,32.11,0000 0000 0000 0000 000000
2015-05-28 09:51:25,0.06,0.87,0.00,24.91,28.58,31.17,4.72,26.33,1016.00,2030.90,3100.11,3047.32,3312.95,349.47,344.72,32.14,0000 0000 0000 0000 000000
2015-05-28 09:56:26,0.01,0.87,0.00,24.90,28.57,31.15,4.76,26.31,1016.13,2030.94,3099.97,3047.02,3312.62,350.15,345.61,32.17,0000 0000 0000 0000 000000
2015-05-28 10:01:27,0.11,0.88,0.00,24.89,28.56,31.14,4.67,26.34,1016.13,2030.94,3098.79,3046.41,3311.72,349.50,344.87,32.19,0000 0000 0000 0000 000000
2015-05-28 10:06:29,0.15,0.88,0.00,24.87,28.55,31.15,4.72,26.26,1016.13,2030.96,3097.07,3045.22,3310.54,350.04,345.30,32.22,0000 0000 0000 0000 000000
2015-05-28 10:11:30,0.12,0.89,0.00,24.86,28.55,31.13,4.78,26.24,1016.13,2030.97,3095.12,3044.04,3309.08,350.07,345.31,32.25,0000 0000 0000 0000 000000
2015-05-28 10:16:31,0.00,0.89,0.00,24.83,28.53,31.14,4.76,26.32,1016.13,2030.98,3094.98,3043.97,3309.00,349.85,345.24,32.28,0000 0000 0000 0000 000000
2015-05-28 10:21:32,0.06,0.89,0.00,24.81,28.52,31.12,4.68,26.32,1016.13,2030.98,3094.54,3043.64,3308.81,349.42,344.98,32.31,0000 0000 0000 0000 000000
2015-05-28 10:26:33,0.17,0.89,0.00,24.80,28.51,31.10,4.73,26.37,1016.13,2030.99,3092.50,3042.14,3307.25,349.78,345.43,32.34,0000 0000 0000 0000 000000
2015-05-28 10:31:35,0.07,0.89,0.00,24.77,28.50,31.10,4.77,26.31,1016.13,2030.99,3091.62,3041.56,3306.70,350.35,345.80,32.37,0000 0000 0000 0000 000000
2015-05-28 10:36:36,0.05,0.90,0.00,24.79,28.49,31.10,4.70,26.27,1016.13,2030.99,3090.75,3040.98,3306.00,349.64,345.09,32.40,0000 0000 0000 0000 000000
2015-05-28 10:41:37,0.14,0.90,0.00,24.78,28.47,31.09,4.74,26.27,1016.13,2030.99,3089.49,3039.94,3304.89,349.88,345.37,32.43,0000 0000 0000 0000 000000
2015-05-28 10:46:38,0.15,0.90,0.00,24.77,28.47,31.07,4.75,26.32,1016.13,2031.00,3087.91,3038.50,3303.48,350.05,345.40,32.46,0000 0000 0000 0000 000000
2015-05-28 10:51:39,0.17,0.91,0.00,24.77,28.45,31.06,4.82,26.35,1016.14,2031.00,3086.18,3037.20,3302.04,350.31,345.87,32.49,0000 0000 0000 0000 000000
2015-05-28 10:56:41,0.10,0.91,0.00,24.76,28.45,31.06,4.71,26.46,1016.18,2031.01,3084.72,3035.95,3300.84,349.69,345.10,32.52,0000 0000 0000 0000 000000
2015-05-28 11:01:42,0.20,0.92,0.00,24.75,28.42,31.07,4.73,26.41,1016.26,2031.01,3082.77,3034.46,3299.24,349.88,345.29,32.55,0000 0000 0000 0000 000000
2015-05-28 11:06:43,0.08,0.92,0.00,24.74,28.42,31.06,4.72,26.29,1016.27,2031.02,3081.80,3033.57,3298.10,349.65,345.15,32.58,0000 0000 0000 0000 000000
2015-05-28 11:11:44,0.10,0.92,0.00,24.73,28.41,31.06,4.76,26.25,1016.39,2031.05,3080.75,3032.70,3297.29,349.76,345.36,32.60,0000 0000 0000 0000 000000
2015-05-28 11:16:45,0.14,0.93,0.00,24.71,28.40,31.04,4.69,26.37,1016.58,2031.08,3079.09,3031.33,3295.98,349.68,345.31,32.63,0000 0000 0000 0000 000000
2015-05-28 11:21:46,0.19,0.93,0.00,24.71,28.39,31.05,4.77,26.31,1016.57,2031.05,3077.17,3029.74,3294.30,349.88,345.63,32.66,0000 0000 0000 0000 000000
2015-05-28 11:26:47,0.18,0.94,0.00,24.69,28.37,31.04,4.73,26.23,1016.60,2031.18,3075.55,3028.40,3292.85,349.83,345.42,32.69,0000 0000 0000 0000 000000
2015-05-28 11:31:49,0.19,0.94,0.00,24.67,28.37,31.03,4.77,26.37,1016.62,2031.42,3074.02,3027.11,3291.52,350.24,346.02,32.72,0000 0000 0000 0000 000000
2015-05-28 11:36:50,0.19,0.95,0.00,24.65,28.35,31.03,4.68,26.29,1016.62,2031.58,3072.39,3025.68,3290.06,350.03,345.75,32.75,0000 0000 0000 0000 000000
2015-05-28 11:41:51,0.16,0.96,0.00,24.63,28.35,31.02,4.73,26.26,1016.62,2031.75,3070.50,3024.15,3288.39,350.33,346.30,32.78,0000 0000 0000 0000 000000
2015-05-28 11:46:53,0.03,0.96,0.00,24.62,28.32,31.00,4.75,26.29,1016.61,2031.80,3070.00,3023.77,3287.99,349.73,345.58,32.81,0000 0000 0000 0000 000000
2015-05-28 11:51:54,0.09,0.96,0.00,24.61,28.32,31.00,4.78,26.38,1016.61,2031.93,3069.57,3023.29,3287.59,349.39,345.30,32.84,0000 0000 0000 0000 000000
2015-05-28 11:56:55,0.02,0.96,0.00,24.60,28.31,31.01,4.70,26.50,1016.62,2031.97,3068.99,3022.95,3287.01,349.44,345.24,32.87,0000 0000 0000 0000 000000
2015-05-28 12:01:56,0.06,0.96,0.00,24.60,28.30,30.99,4.75,26.35,1016.61,2031.96,3068.40,3022.27,3286.91,350.12,346.01,32.90,0000 0000 0000 0000 000000
2015-05-28 12:06:58,0.04,0.96,0.00,24.59,28.28,30.98,4.71,26.32,1016.62,2031.97,3067.95,3022.01,3286.15,349.92,345.56,32.93,0000 0000 0000 0000 000000
2015-05-28 12:11:59,0.01,0.96,0.00,24.56,28.27,30.98,4.79,26.37,1016.62,2031.99,3067.65,3022.00,3286.00,350.18,346.05,32.96,0000 0000 0000 0000 000000
2015-05-28 12:17:00,0.06,0.97,0.00,24.53,28.26,30.96,4.74,26.33,1016.62,2031.98,3067.02,3021.52,3285.78,349.89,345.83,32.99,0000 0000 0000 0000 000000
2015-05-28 12:22:01,0.05,0.97,0.00,24.52,28.25,30.96,4.76,26.34,1016.62,2031.99,3066.48,3021.03,3285.11,349.89,345.83,33.01,0000 0000 0000 0000 000000
2015-05-28 12:27:03,0.00,0.97,0.00,24.50,28.24,30.93,4.68,26.30,1016.62,2031.99,3066.04,3021.00,3285.01,349.70,345.64,33.04,0000 0000 0000 0000 000000
2015-05-28 12:32:03,0.00,0.97,0.00,24.48,28.22,30.94,4.71,26.30,1016.62,2031.99,3065.89,3020.95,3284.99,350.06,346.03,33.07,0000 0000 0000 0000 000000
2015-05-28 12:37:05,0.02,0.97,0.00,24.46,28.22,30.93,4.75,26.30,1016.62,2031.99,3065.50,3020.91,3284.95,350.16,346.27,33.10,0000 0000 0000 0000 000000
2015-05-28 12:42:06,0.07,0.97,0.00,24.44,28.20,30.91,4.79,26.37,1016.62,2031.99,3065.02,3020.28,3284.43,350.44,346.28,33.13,0000 0000 0000 0000 000000
2015-05-28 12:47:07,0.03,0.97,0.00,24.43,28.20,30.91,4.79,26.23,1016.62,2031.99,3064.64,3020.00,3284.02,350.14,346.00,33.16,0000 0000 0000 0000 000000
2015-05-28 12:52:08,0.01,0.97,0.00,24.41,28.18,30.90,4.75,26.38,1016.62,2032.00,3064.05,3020.00,3284.00,349.81,345.86,33.19,0000 0000 0000 0000 000000
2015-05-28 12:57:10,0.00,0.97,0.00,24.39,28.17,30.89,4.76,26.38,1016.62,2032.00,3063.99,3019.97,3283.99,349.91,346.08,33.22,0000 0000 0000 0000 000000
2015-05-28 13:02:11,-0.00,0.97,0.00,24.37,28.16,30.87,4.84,26.43,1016.62,2032.01,3063.99,3019.98,3283.96,350.22,346.33,33.25,0000 0000 0000 0000 000000